contact:dominique.lefevre@mio.osupytheas.fr, maurice.libes@osupytheas.fr, didier.mallarino@osupytheas.fr
Project:EMSO http://www.emso-fr.org/EMSO-France
Depth: 2436.0 m
Title:EMSO Ligure Ouest : Data MII capteur MICROCAT
DateTime_Computer,Latitude,Longitude,Temperature,Conductivity,Pressure,DateTime_Instrument
DateTime_Computer,Latitude,Longitude,degC,S m-1,dbar,DateTime_Instrument
2021-07-31T00:02:57Z,42.805,6.029,13.3031,4.60042,2470.46,2021-7-31T02:04:14Z
2021-07-31T00:06:00Z,42.805,6.029,13.3027,4.60059,2470.474,2021-7-31T02:07:17Z
2021-07-31T00:09:03Z,42.805,6.029,13.3036,4.60062,2470.437,2021-7-31T02:10:20Z
2021-07-31T00:12:06Z,42.805,6.029,13.3044,4.60049,2470.39,2021-7-31T02:13:23Z
2021-07-31T00:15:09Z,42.805,6.029,13.3032,4.60036,2470.404,2021-7-31T02:16:26Z
2021-07-31T00:18:12Z,42.805,6.029,13.3027,4.60029,2470.427,2021-7-31T02:19:30Z
2021-07-31T00:21:15Z,42.805,6.029,13.3012,4.60035,2470.437,2021-7-31T02:22:33Z
2021-07-31T00:24:19Z,42.805,6.029,13.3015,4.60030,2470.474,2021-7-31T02:25:36Z
2021-07-31T00:27:22Z,42.805,6.029,13.3013,4.60011,2470.46,2021-7-31T02:28:39Z
2021-07-31T00:30:25Z,42.805,6.029,13.3015,4.60037,2470.437,2021-7-31T02:31:42Z
2021-07-31T00:33:28Z,42.805,6.029,13.3002,4.60029,2470.46,2021-7-31T02:34:45Z
2021-07-31T00:36:31Z,42.805,6.029,13.3014,4.60023,2470.474,2021-7-31T02:37:48Z
2021-07-31T00:39:34Z,42.805,6.029,13.3014,4.60039,2470.413,2021-7-31T02:40:51Z
2021-07-31T00:42:37Z,42.805,6.029,13.3015,4.60019,2470.46,2021-7-31T02:43:55Z
2021-07-31T00:45:40Z,42.805,6.029,13.3015,4.60009,2470.437,2021-7-31T02:46:58Z
2021-07-31T00:48:44Z,42.805,6.029,13.3018,4.60046,2470.45,2021-7-31T02:50:01Z
2021-07-31T00:51:47Z,42.805,6.029,13.3006,4.60025,2470.437,2021-7-31T02:53:04Z
2021-07-31T00:54:50Z,42.805,6.029,13.3000,4.60011,2470.413,2021-7-31T02:56:07Z
2021-07-31T00:57:53Z,42.805,6.029,13.3011,4.60029,2470.437,2021-7-31T02:59:10Z
2021-07-31T01:00:56Z,42.805,6.029,13.3023,4.60066,2470.404,2021-7-31T03:02:13Z
2021-07-31T01:03:59Z,42.805,6.029,13.2998,4.60029,2470.437,2021-7-31T03:05:16Z
2021-07-31T01:07:02Z,42.805,6.029,13.3025,4.60044,2470.413,2021-7-31T03:08:19Z
2021-07-31T01:10:05Z,42.805,6.029,13.3012,4.60024,2470.413,2021-7-31T03:11:23Z
2021-07-31T01:13:09Z,42.805,6.029,13.3011,4.60027,2470.45,2021-7-31T03:14:26Z
2021-07-31T01:16:12Z,42.805,6.029,13.3005,4.60027,2470.427,2021-7-31T03:17:29Z
2021-07-31T01:19:15Z,42.805,6.029,13.3009,4.60022,2470.413,2021-7-31T03:20:32Z
2021-07-31T01:22:18Z,42.805,6.029,13.3020,4.60029,2470.427,2021-7-31T03:23:35Z
2021-07-31T01:25:21Z,42.805,6.029,13.3004,4.60033,2470.413,2021-7-31T03:26:38Z
2021-07-31T01:28:24Z,42.805,6.029,13.3010,4.60016,2470.404,2021-7-31T03:29:41Z
2021-07-31T01:31:27Z,42.805,6.029,13.3006,4.60036,2470.413,2021-7-31T03:32:44Z
2021-07-31T01:34:30Z,42.805,6.029,13.3040,4.60024,2470.399,2021-7-31T03:35:48Z
2021-07-31T01:37:33Z,42.805,6.029,13.3019,4.60039,2470.413,2021-7-31T03:38:51Z
2021-07-31T01:40:37Z,42.805,6.029,13.3036,4.60033,2470.437,2021-7-31T03:41:54Z
2021-07-31T01:43:40Z,42.805,6.029,13.3017,4.60046,2470.39,2021-7-31T03:44:57Z
2021-07-31T01:46:43Z,42.805,6.029,13.3029,4.60021,2470.413,2021-7-31T03:48:00Z
2021-07-31T01:49:46Z,42.805,6.029,13.3026,4.60043,2470.427,2021-7-31T03:51:03Z
2021-07-31T01:52:49Z,42.805,6.029,13.3003,4.60056,2470.404,2021-7-31T03:54:06Z
2021-07-31T01:55:52Z,42.805,6.029,13.3008,4.60069,2470.366,2021-7-31T03:57:09Z
2021-07-31T01:58:55Z,42.805,6.029,13.3000,4.60070,2470.413,2021-7-31T04:00:13Z
2021-07-31T02:01:58Z,42.805,6.029,13.3024,4.60052,2470.413,2021-7-31T04:03:16Z
2021-07-31T02:05:02Z,42.805,6.029,13.3028,4.60050,2470.427,2021-7-31T04:06:19Z
2021-07-31T02:08:05Z,42.805,6.029,13.3029,4.60010,2470.413,2021-7-31T04:09:22Z
2021-07-31T02:11:08Z,42.805,6.029,13.3030,4.60023,2470.366,2021-7-31T04:12:25Z
2021-07-31T02:14:11Z,42.805,6.029,13.3036,4.60031,2470.404,2021-7-31T04:15:28Z
2021-07-31T02:17:14Z,42.805,6.029,13.3021,4.60032,2470.39,2021-7-31T04:18:31Z
2021-07-31T02:20:17Z,42.805,6.029,13.3020,4.60019,2470.366,2021-7-31T04:21:34Z
2021-07-31T02:23:20Z,42.805,6.029,13.3002,4.60019,2470.413,2021-7-31T04:24:38Z
2021-07-31T02:26:23Z,42.805,6.029,13.3015,4.60026,2470.38,2021-7-31T04:27:41Z
2021-07-31T02:29:27Z,42.805,6.029,13.3024,4.60009,2470.404,2021-7-31T04:30:44Z
2021-07-31T02:32:30Z,42.805,6.029,13.3018,4.60022,2470.38,2021-7-31T04:33:47Z
2021-07-31T02:35:33Z,42.805,6.029,13.3032,4.60035,2470.38,2021-7-31T04:36:50Z
2021-07-31T02:38:36Z,42.805,6.029,13.3039,4.60043,2470.39,2021-7-31T04:39:53Z
2021-07-31T02:41:39Z,42.805,6.029,13.3026,4.60029,2470.357,2021-7-31T04:42:56Z
2021-07-31T02:44:42Z,42.805,6.029,13.3023,4.60018,2470.357,2021-7-31T04:45:59Z
2021-07-31T02:47:45Z,42.805,6.029,13.3015,4.60039,2470.38,2021-7-31T04:49:03Z
2021-07-31T02:50:48Z,42.805,6.029,13.3031,4.60018,2470.38,2021-7-31T04:52:06Z
2021-07-31T02:53:52Z,42.805,6.029,13.3029,4.60011,2470.38,2021-7-31T04:55:09Z
2021-07-31T02:56:55Z,42.805,6.029,13.3021,4.60050,2470.366,2021-7-31T04:58:12Z
2021-07-31T02:59:58Z,42.805,6.029,13.3021,4.60028,2470.366,2021-7-31T05:01:15Z
2021-07-31T03:03:01Z,42.805,6.029,13.3020,4.60054,2470.404,2021-7-31T05:04:18Z
2021-07-31T03:06:04Z,42.805,6.029,13.3019,4.60074,2470.366,2021-7-31T05:07:21Z
2021-07-31T03:09:07Z,42.805,6.029,13.3031,4.60069,2470.357,2021-7-31T05:10:24Z
2021-07-31T03:12:10Z,42.805,6.029,13.3052,4.60086,2470.343,2021-7-31T05:13:27Z
2021-07-31T03:15:13Z,42.805,6.029,13.3028,4.60043,2470.366,2021-7-31T05:16:31Z
2021-07-31T03:18:17Z,42.805,6.029,13.3021,4.60058,2470.343,2021-7-31T05:19:34Z
2021-07-31T03:21:20Z,42.805,6.029,13.3023,4.60024,2470.366,2021-7-31T05:22:37Z
2021-07-31T03:24:23Z,42.805,6.029,13.3029,4.60036,2470.357,2021-7-31T05:25:40Z
2021-07-31T03:27:26Z,42.805,6.029,13.3041,4.60042,2470.357,2021-7-31T05:28:43Z
2021-07-31T03:30:29Z,42.805,6.029,13.3015,4.60018,2470.357,2021-7-31T05:31:46Z
2021-07-31T03:33:32Z,42.805,6.029,13.3038,4.60040,2470.366,2021-7-31T05:34:49Z
2021-07-31T03:36:35Z,42.805,6.029,13.3009,4.60064,2470.343,2021-7-31T05:37:52Z
2021-07-31T03:39:38Z,42.805,6.029,13.3006,4.60039,2470.38,2021-7-31T05:40:56Z
2021-07-31T03:42:42Z,42.805,6.029,13.3015,4.60044,2470.334,2021-7-31T05:43:59Z
2021-07-31T03:45:45Z,42.805,6.029,13.3020,4.60041,2470.357,2021-7-31T05:47:02Z
2021-07-31T03:48:48Z,42.805,6.029,13.3028,4.60063,2470.357,2021-7-31T05:50:05Z
2021-07-31T03:51:51Z,42.805,6.029,13.3023,4.60024,2470.343,2021-7-31T05:53:08Z
2021-07-31T03:54:54Z,42.805,6.029,13.3022,4.60026,2470.343,2021-7-31T05:56:11Z
2021-07-31T03:57:57Z,42.805,6.029,13.3016,4.60013,2470.297,2021-7-31T05:59:14Z
2021-07-31T04:01:00Z,42.805,6.029,13.3011,4.60009,2470.357,2021-7-31T06:02:18Z
2021-07-31T04:04:03Z,42.805,6.029,13.3018,4.60011,2470.32,2021-7-31T06:05:21Z
2021-07-31T04:07:07Z,42.805,6.029,13.3012,4.60082,2470.334,2021-7-31T06:08:24Z
2021-07-31T04:10:10Z,42.805,6.029,13.3018,4.60059,2470.334,2021-7-31T06:11:27Z
2021-07-31T04:13:13Z,42.805,6.029,13.3031,4.60081,2470.32,2021-7-31T06:14:30Z
2021-07-31T04:16:16Z,42.805,6.029,13.3048,4.60062,2470.357,2021-7-31T06:17:33Z
2021-07-31T04:19:19Z,42.805,6.029,13.3070,4.60099,2470.343,2021-7-31T06:20:36Z
2021-07-31T04:22:22Z,42.805,6.029,13.3052,4.60092,2470.297,2021-7-31T06:23:39Z
2021-07-31T04:25:25Z,42.805,6.029,13.3043,4.60066,2470.297,2021-7-31T06:26:42Z
2021-07-31T04:28:28Z,42.805,6.029,13.3031,4.60083,2470.297,2021-7-31T06:29:46Z
2021-07-31T04:31:31Z,42.805,6.029,13.3031,4.60052,2470.297,2021-7-31T06:32:49Z
2021-07-31T04:34:35Z,42.805,6.029,13.3070,4.60099,2470.334,2021-7-31T06:35:52Z
2021-07-31T04:37:38Z,42.805,6.029,13.3012,4.60090,2470.38,2021-7-31T06:38:55Z
2021-07-31T04:40:41Z,42.805,6.029,13.3034,4.60090,2470.343,2021-7-31T06:41:58Z
2021-07-31T04:43:44Z,42.805,6.029,13.3027,4.60090,2470.334,2021-7-31T06:45:01Z
2021-07-31T04:46:47Z,42.805,6.029,13.3046,4.60079,2470.334,2021-7-31T06:48:04Z
2021-07-31T04:49:50Z,42.805,6.029,13.3048,4.60056,2470.357,2021-7-31T06:51:07Z
2021-07-31T04:52:53Z,42.805,6.029,13.3022,4.60052,2470.297,2021-7-31T06:54:11Z
2021-07-31T04:55:56Z,42.805,6.029,13.3054,4.60105,2470.31,2021-7-31T06:57:14Z
2021-07-31T04:59:00Z,42.805,6.029,13.3036,4.60076,2470.32,2021-7-31T07:00:17Z
2021-07-31T05:02:03Z,42.805,6.029,13.3048,4.60089,2470.334,2021-7-31T07:03:20Z
2021-07-31T05:05:06Z,42.805,6.029,13.3077,4.60061,2470.31,2021-7-31T07:06:23Z
2021-07-31T05:08:09Z,42.805,6.029,13.3021,4.60078,2470.334,2021-7-31T07:09:26Z
2021-07-31T05:11:12Z,42.805,6.029,13.3041,4.60063,2470.334,2021-7-31T07:12:29Z
2021-07-31T05:14:15Z,42.805,6.029,13.3019,4.60042,2470.334,2021-7-31T07:15:32Z
2021-07-31T05:17:18Z,42.805,6.029,13.3034,4.60089,2470.297,2021-7-31T07:18:36Z
2021-07-31T05:20:21Z,42.805,6.029,13.3059,4.60092,2470.31,2021-7-31T07:21:39Z
2021-07-31T05:23:25Z,42.805,6.029,13.3055,4.60072,2470.324,2021-7-31T07:24:42Z
2021-07-31T05:26:28Z,42.805,6.029,13.3058,4.60081,2470.343,2021-7-31T07:27:45Z
2021-07-31T05:29:31Z,42.805,6.029,13.3067,4.60097,2470.31,2021-7-31T07:30:48Z
2021-07-31T05:32:34Z,42.805,6.029,13.3035,4.60095,2470.334,2021-7-31T07:33:51Z
2021-07-31T05:35:37Z,42.805,6.029,13.3037,4.60115,2470.334,2021-7-31T07:36:54Z
2021-07-31T05:38:40Z,42.805,6.029,13.3031,4.60119,2470.297,2021-7-31T07:39:57Z
2021-07-31T05:41:43Z,42.805,6.029,13.3024,4.60079,2470.273,2021-7-31T07:43:01Z
2021-07-31T05:44:46Z,42.805,6.029,13.3022,4.60097,2470.31,2021-7-31T07:46:04Z
2021-07-31T05:47:50Z,42.805,6.029,13.3016,4.60127,2470.31,2021-7-31T07:49:07Z
2021-07-31T05:50:53Z,42.805,6.029,13.3000,4.60073,2470.32,2021-7-31T07:52:10Z
2021-07-31T05:53:56Z,42.805,6.029,13.3001,4.60055,2470.297,2021-7-31T07:55:13Z
2021-07-31T05:56:59Z,42.805,6.029,13.3006,4.60076,2470.297,2021-7-31T07:58:16Z
2021-07-31T06:00:02Z,42.805,6.029,13.3014,4.60089,2470.31,2021-7-31T08:01:19Z
2021-07-31T06:03:05Z,42.805,6.029,13.3011,4.60086,2470.31,2021-7-31T08:04:22Z
2021-07-31T06:06:08Z,42.805,6.029,13.3017,4.60059,2470.273,2021-7-31T08:07:26Z
2021-07-31T06:09:11Z,42.805,6.029,13.3029,4.60071,2470.334,2021-7-31T08:10:29Z
2021-07-31T06:12:15Z,42.805,6.029,13.3038,4.60046,2470.297,2021-7-31T08:13:32Z
2021-07-31T06:15:18Z,42.805,6.029,13.3039,4.60074,2470.334,2021-7-31T08:16:35Z
2021-07-31T06:18:21Z,42.805,6.029,13.3020,4.60069,2470.297,2021-7-31T08:19:38Z
2021-07-31T06:21:24Z,42.805,6.029,13.3023,4.60065,2470.273,2021-7-31T08:22:41Z
2021-07-31T06:24:27Z,42.805,6.029,13.3046,4.60054,2470.287,2021-7-31T08:25:44Z
2021-07-31T06:27:30Z,42.805,6.029,13.3020,4.60099,2470.273,2021-7-31T08:28:47Z
2021-07-31T06:30:33Z,42.805,6.029,13.3031,4.60110,2470.273,2021-7-31T08:31:51Z
2021-07-31T06:33:36Z,42.805,6.029,13.3021,4.60068,2470.273,2021-7-31T08:34:54Z
2021-07-31T06:36:40Z,42.805,6.029,13.3015,4.60097,2470.273,2021-7-31T08:37:57Z
2021-07-31T06:39:43Z,42.805,6.029,13.3019,4.60064,2470.297,2021-7-31T08:41:00Z
2021-07-31T06:42:46Z,42.805,6.029,13.3011,4.60057,2470.297,2021-7-31T08:44:03Z
2021-07-31T06:45:49Z,42.805,6.029,13.3011,4.60061,2470.273,2021-7-31T08:47:06Z
2021-07-31T06:48:52Z,42.805,6.029,13.3024,4.60067,2470.264,2021-7-31T08:50:09Z
2021-07-31T06:51:55Z,42.805,6.029,13.3041,4.60049,2470.31,2021-7-31T08:53:12Z
2021-07-31T06:54:58Z,42.805,6.029,13.3029,4.60042,2470.32,2021-7-31T08:56:16Z
2021-07-31T06:58:01Z,42.805,6.029,13.3033,4.60077,2470.297,2021-7-31T08:59:19Z
2021-07-31T07:01:05Z,42.805,6.029,13.3028,4.60067,2470.31,2021-7-31T09:02:22Z
2021-07-31T07:04:08Z,42.805,6.029,13.3011,4.60076,2470.297,2021-7-31T09:05:25Z
2021-07-31T07:07:11Z,42.805,6.029,13.2999,4.60078,2470.287,2021-7-31T09:08:28Z
2021-07-31T07:10:14Z,42.805,6.029,13.3007,4.60060,2470.287,2021-7-31T09:11:31Z
2021-07-31T07:13:17Z,42.805,6.029,13.3004,4.60092,2470.31,2021-7-31T09:14:34Z
2021-07-31T07:16:20Z,42.805,6.029,13.3033,4.60058,2470.31,2021-7-31T09:17:37Z
2021-07-31T07:19:23Z,42.805,6.029,13.3002,4.60088,2470.31,2021-7-31T09:20:41Z
2021-07-31T07:22:26Z,42.805,6.029,13.3007,4.60047,2470.31,2021-7-31T09:23:44Z
2021-07-31T07:25:30Z,42.805,6.029,13.3005,4.60055,2470.273,2021-7-31T09:26:47Z
2021-07-31T07:28:33Z,42.805,6.029,13.2998,4.60079,2470.264,2021-7-31T09:29:50Z
2021-07-31T07:31:36Z,42.805,6.029,13.3004,4.60064,2470.25,2021-7-31T09:32:53Z
2021-07-31T07:34:39Z,42.805,6.029,13.3003,4.60067,2470.324,2021-7-31T09:35:56Z
2021-07-31T07:37:42Z,42.805,6.029,13.3010,4.60058,2470.287,2021-7-31T09:38:59Z
2021-07-31T07:40:45Z,42.805,6.029,13.3020,4.60070,2470.273,2021-7-31T09:42:02Z
2021-07-31T07:43:48Z,42.805,6.029,13.3010,4.60070,2470.297,2021-7-31T09:45:06Z
2021-07-31T07:46:51Z,42.805,6.029,13.3019,4.60064,2470.264,2021-7-31T09:48:09Z
2021-07-31T07:49:54Z,42.805,6.029,13.3009,4.60078,2470.357,2021-7-31T09:51:12Z
2021-07-31T07:52:58Z,42.805,6.029,13.3001,4.60061,2470.273,2021-7-31T09:54:15Z
2021-07-31T07:56:01Z,42.805,6.029,13.3003,4.60066,2470.273,2021-7-31T09:57:18Z
2021-07-31T07:59:04Z,42.805,6.029,13.3022,4.60069,2470.31,2021-7-31T10:00:21Z
2021-07-31T08:02:07Z,42.805,6.029,13.3000,4.60064,2470.273,2021-7-31T10:03:24Z
2021-07-31T08:05:10Z,42.805,6.029,13.3008,4.60053,2470.297,2021-7-31T10:06:27Z
2021-07-31T08:08:13Z,42.805,6.029,13.3019,4.60093,2470.287,2021-7-31T10:09:31Z
2021-07-31T08:11:16Z,42.805,6.029,13.3002,4.60081,2470.264,2021-7-31T10:12:34Z
2021-07-31T08:14:20Z,42.805,6.029,13.3018,4.60067,2470.297,2021-7-31T10:15:37Z
2021-07-31T08:17:23Z,42.805,6.029,13.3000,4.60050,2470.25,2021-7-31T10:18:40Z
2021-07-31T08:20:26Z,42.805,6.029,13.3002,4.60043,2470.297,2021-7-31T10:21:43Z
2021-07-31T08:23:29Z,42.805,6.029,13.3001,4.60040,2470.32,2021-7-31T10:24:46Z
2021-07-31T08:26:32Z,42.805,6.029,13.3004,4.60046,2470.297,2021-7-31T10:27:49Z
2021-07-31T08:29:35Z,42.805,6.029,13.3003,4.60066,2470.297,2021-7-31T10:30:52Z
2021-07-31T08:32:38Z,42.805,6.029,13.3015,4.60061,2470.334,2021-7-31T10:33:56Z
2021-07-31T08:35:41Z,42.805,6.029,13.3004,4.60058,2470.287,2021-7-31T10:36:59Z
2021-07-31T08:38:45Z,42.805,6.029,13.3008,4.60050,2470.297,2021-7-31T10:40:02Z
2021-07-31T08:41:48Z,42.805,6.029,13.3012,4.60044,2470.273,2021-7-31T10:43:05Z
2021-07-31T08:44:51Z,42.805,6.029,13.3005,4.60033,2470.32,2021-7-31T10:46:08Z
2021-07-31T08:47:54Z,42.805,6.029,13.3000,4.60058,2470.32,2021-7-31T10:49:11Z
2021-07-31T08:50:57Z,42.805,6.029,13.3000,4.60061,2470.31,2021-7-31T10:52:14Z
2021-07-31T08:54:00Z,42.805,6.029,13.3009,4.60050,2470.31,2021-7-31T10:55:17Z
2021-07-31T08:57:03Z,42.805,6.029,13.3006,4.60034,2470.31,2021-7-31T10:58:21Z
2021-07-31T09:00:06Z,42.805,6.029,13.3006,4.60069,2470.297,2021-7-31T11:01:24Z
2021-07-31T09:03:10Z,42.805,6.029,13.3016,4.60059,2470.287,2021-7-31T11:04:27Z
2021-07-31T09:06:13Z,42.805,6.029,13.3006,4.60045,2470.31,2021-7-31T11:07:30Z
2021-07-31T09:09:16Z,42.805,6.029,13.3015,4.60039,2470.334,2021-7-31T11:10:33Z
2021-07-31T09:12:19Z,42.805,6.029,13.3002,4.60044,2470.31,2021-7-31T11:13:36Z
2021-07-31T09:15:22Z,42.805,6.029,13.2997,4.60044,2470.32,2021-7-31T11:16:39Z
2021-07-31T09:18:25Z,42.805,6.029,13.3007,4.60054,2470.297,2021-7-31T11:19:42Z
2021-07-31T09:21:28Z,42.805,6.029,13.3005,4.60054,2470.273,2021-7-31T11:22:46Z
2021-07-31T09:24:31Z,42.805,6.029,13.3000,4.60052,2470.31,2021-7-31T11:25:49Z
2021-07-31T09:27:35Z,42.805,6.029,13.2996,4.60050,2470.297,2021-7-31T11:28:52Z
2021-07-31T09:30:38Z,42.805,6.029,13.2998,4.60037,2470.287,2021-7-31T11:31:55Z
2021-07-31T09:33:41Z,42.805,6.029,13.3009,4.60036,2470.343,2021-7-31T11:34:58Z
2021-07-31T09:36:44Z,42.805,6.029,13.2996,4.60029,2470.31,2021-7-31T11:38:01Z
2021-07-31T09:39:47Z,42.805,6.029,13.3010,4.60049,2470.32,2021-7-31T11:41:04Z
2021-07-31T09:42:50Z,42.805,6.029,13.3008,4.60055,2470.31,2021-7-31T11:44:07Z
2021-07-31T09:45:53Z,42.805,6.029,13.3003,4.60041,2470.31,2021-7-31T11:47:11Z
2021-07-31T09:48:56Z,42.805,6.029,13.3002,4.60037,2470.32,2021-7-31T11:50:14Z
2021-07-31T09:52:00Z,42.805,6.029,13.3002,4.60045,2470.31,2021-7-31T11:53:17Z
2021-07-31T09:55:03Z,42.805,6.029,13.3004,4.60057,2470.297,2021-7-31T11:56:20Z
2021-07-31T09:58:06Z,42.805,6.029,13.2997,4.60040,2470.32,2021-7-31T11:59:23Z
2021-07-31T10:01:09Z,42.805,6.029,13.2996,4.60039,2470.343,2021-7-31T12:02:26Z
2021-07-31T10:04:12Z,42.805,6.029,13.3000,4.60084,2470.343,2021-7-31T12:05:29Z
2021-07-31T10:07:15Z,42.805,6.029,13.2998,4.60033,2470.334,2021-7-31T12:08:33Z
2021-07-31T10:10:18Z,42.805,6.029,13.2993,4.60036,2470.334,2021-7-31T12:11:36Z
2021-07-31T10:13:22Z,42.805,6.029,13.2997,4.60040,2470.343,2021-7-31T12:14:39Z
2021-07-31T10:16:25Z,42.805,6.029,13.3002,4.60079,2470.343,2021-7-31T12:17:42Z
2021-07-31T10:19:28Z,42.805,6.029,13.3014,4.60055,2470.38,2021-7-31T12:20:45Z
2021-07-31T10:22:31Z,42.805,6.029,13.2999,4.60057,2470.32,2021-7-31T12:23:48Z
2021-07-31T10:25:34Z,42.805,6.029,13.2996,4.60057,2470.32,2021-7-31T12:26:51Z
2021-07-31T10:28:37Z,42.805,6.029,13.3009,4.60055,2470.343,2021-7-31T12:29:54Z
2021-07-31T10:31:40Z,42.805,6.029,13.3004,4.60040,2470.38,2021-7-31T12:32:58Z
2021-07-31T10:34:43Z,42.805,6.029,13.2998,4.60038,2470.366,2021-7-31T12:36:01Z
2021-07-31T10:37:47Z,42.805,6.029,13.3001,4.60026,2470.334,2021-7-31T12:39:04Z
2021-07-31T10:40:50Z,42.805,6.029,13.2998,4.60028,2470.32,2021-7-31T12:42:07Z
2021-07-31T10:43:53Z,42.805,6.029,13.2991,4.60014,2470.357,2021-7-31T12:45:10Z
2021-07-31T10:46:56Z,42.805,6.029,13.2993,4.60049,2470.32,2021-7-31T12:48:13Z
2021-07-31T10:49:59Z,42.805,6.029,13.2994,4.60035,2470.32,2021-7-31T12:51:16Z
2021-07-31T10:53:02Z,42.805,6.029,13.2997,4.60026,2470.357,2021-7-31T12:54:19Z
2021-07-31T10:56:05Z,42.805,6.029,13.3014,4.60074,2470.366,2021-7-31T12:57:23Z
2021-07-31T10:59:08Z,42.805,6.029,13.3004,4.60042,2470.343,2021-7-31T13:00:26Z
2021-07-31T11:02:12Z,42.805,6.029,13.3006,4.60049,2470.32,2021-7-31T13:03:29Z
2021-07-31T11:05:15Z,42.805,6.029,13.3009,4.60058,2470.366,2021-7-31T13:06:32Z
2021-07-31T11:08:18Z,42.805,6.029,13.3005,4.60039,2470.32,2021-7-31T13:09:35Z
2021-07-31T11:11:21Z,42.805,6.029,13.2995,4.60044,2470.38,2021-7-31T13:12:38Z
2021-07-31T11:14:24Z,42.805,6.029,13.3008,4.60044,2470.343,2021-7-31T13:15:41Z
2021-07-31T11:17:27Z,42.805,6.029,13.2996,4.60026,2470.366,2021-7-31T13:18:44Z
2021-07-31T11:20:30Z,42.805,6.029,13.2995,4.60021,2470.32,2021-7-31T13:21:48Z
2021-07-31T11:23:33Z,42.805,6.029,13.2995,4.60031,2470.366,2021-7-31T13:24:51Z
2021-07-31T11:26:37Z,42.805,6.029,13.3002,4.60036,2470.38,2021-7-31T13:27:54Z
2021-07-31T11:29:40Z,42.805,6.029,13.3000,4.60050,2470.343,2021-7-31T13:30:57Z
2021-07-31T11:32:43Z,42.805,6.029,13.3014,4.60044,2470.366,2021-7-31T13:34:00Z
2021-07-31T11:35:46Z,42.805,6.029,13.3006,4.60055,2470.343,2021-7-31T13:37:03Z
2021-07-31T11:38:49Z,42.805,6.029,13.2996,4.60024,2470.343,2021-7-31T13:40:06Z
2021-07-31T11:41:52Z,42.805,6.029,13.3000,4.60024,2470.343,2021-7-31T13:43:09Z
2021-07-31T11:44:55Z,42.805,6.029,13.3003,4.60028,2470.343,2021-7-31T13:46:13Z
2021-07-31T11:47:58Z,42.805,6.029,13.3014,4.60049,2470.343,2021-7-31T13:49:16Z
2021-07-31T11:51:02Z,42.805,6.029,13.3000,4.60039,2470.32,2021-7-31T13:52:19Z
2021-07-31T11:54:05Z,42.805,6.029,13.3007,4.60058,2470.343,2021-7-31T13:55:22Z
2021-07-31T11:57:08Z,42.805,6.029,13.3000,4.60055,2470.343,2021-7-31T13:58:25Z
2021-07-31T12:00:11Z,42.805,6.029,13.3031,4.60039,2470.38,2021-7-31T14:01:28Z
2021-07-31T12:03:14Z,42.805,6.029,13.3009,4.60057,2470.343,2021-7-31T14:04:31Z
2021-07-31T12:06:17Z,42.805,6.029,13.3005,4.60041,2470.404,2021-7-31T14:07:34Z
2021-07-31T12:09:20Z,42.805,6.029,13.3000,4.60060,2470.38,2021-7-31T14:10:38Z
2021-07-31T12:12:23Z,42.805,6.029,13.3016,4.60059,2470.39,2021-7-31T14:13:41Z
2021-07-31T12:15:27Z,42.805,6.029,13.3017,4.60069,2470.357,2021-7-31T14:16:44Z
2021-07-31T12:18:30Z,42.805,6.029,13.3021,4.60045,2470.343,2021-7-31T14:19:47Z
2021-07-31T12:21:33Z,42.805,6.029,13.3017,4.60050,2470.404,2021-7-31T14:22:50Z
2021-07-31T12:24:36Z,42.805,6.029,13.3000,4.60054,2470.357,2021-7-31T14:25:53Z
2021-07-31T12:27:39Z,42.805,6.029,13.3000,4.60069,2470.357,2021-7-31T14:28:56Z
2021-07-31T12:30:42Z,42.805,6.029,13.3017,4.60056,2470.343,2021-7-31T14:32:00Z
2021-07-31T12:33:45Z,42.805,6.029,13.2998,4.60052,2470.366,2021-7-31T14:35:03Z
2021-07-31T12:36:49Z,42.805,6.029,13.3011,4.60057,2470.357,2021-7-31T14:38:06Z
2021-07-31T12:39:52Z,42.805,6.029,13.3017,4.60054,2470.38,2021-7-31T14:41:09Z
2021-07-31T12:42:55Z,42.805,6.029,13.3033,4.60057,2470.343,2021-7-31T14:44:12Z
2021-07-31T12:45:58Z,42.805,6.029,13.3024,4.60054,2470.357,2021-7-31T14:47:15Z
2021-07-31T12:49:01Z,42.805,6.029,13.3024,4.60045,2470.343,2021-7-31T14:50:18Z
2021-07-31T12:52:04Z,42.805,6.029,13.3002,4.60069,2470.343,2021-7-31T14:53:21Z
2021-07-31T12:55:07Z,42.805,6.029,13.3011,4.60055,2470.343,2021-7-31T14:56:25Z
2021-07-31T12:58:10Z,42.805,6.029,13.3011,4.60062,2470.366,2021-7-31T14:59:28Z
2021-07-31T13:01:14Z,42.805,6.029,13.3004,4.60034,2470.343,2021-7-31T15:02:31Z
2021-07-31T13:04:17Z,42.805,6.029,13.3022,4.60039,2470.38,2021-7-31T15:05:34Z
2021-07-31T13:07:20Z,42.805,6.029,13.3029,4.60052,2470.343,2021-7-31T15:08:37Z
2021-07-31T13:10:23Z,42.805,6.029,13.3026,4.60055,2470.32,2021-7-31T15:11:40Z
2021-07-31T13:13:26Z,42.805,6.029,13.3026,4.60066,2470.357,2021-7-31T15:14:43Z
2021-07-31T13:16:29Z,42.805,6.029,13.3031,4.60048,2470.366,2021-7-31T15:17:46Z
2021-07-31T13:19:32Z,42.805,6.029,13.3026,4.60060,2470.357,2021-7-31T15:20:50Z
2021-07-31T13:22:35Z,42.805,6.029,13.3011,4.60050,2470.32,2021-7-31T15:23:53Z
2021-07-31T13:25:39Z,42.805,6.029,13.3029,4.60039,2470.357,2021-7-31T15:26:56Z
2021-07-31T13:28:42Z,42.805,6.029,13.3020,4.60049,2470.353,2021-7-31T15:29:59Z
2021-07-31T13:31:45Z,42.805,6.029,13.3014,4.60062,2470.343,2021-7-31T15:33:02Z
2021-07-31T13:34:48Z,42.805,6.029,13.3025,4.60057,2470.38,2021-7-31T15:36:05Z
2021-07-31T13:37:51Z,42.805,6.029,13.3020,4.60033,2470.357,2021-7-31T15:39:08Z
2021-07-31T13:40:54Z,42.805,6.029,13.3021,4.60035,2470.32,2021-7-31T15:42:11Z
2021-07-31T13:43:57Z,42.805,6.029,13.3010,4.60059,2470.343,2021-7-31T15:45:15Z
2021-07-31T13:47:00Z,42.805,6.029,13.3004,4.60069,2470.343,2021-7-31T15:48:18Z
2021-07-31T13:50:04Z,42.805,6.029,13.2997,4.60053,2470.343,2021-7-31T15:51:21Z
2021-07-31T13:53:07Z,42.805,6.029,13.3005,4.60042,2470.357,2021-7-31T15:54:24Z
2021-07-31T13:56:10Z,42.805,6.029,13.3003,4.60046,2470.32,2021-7-31T15:57:27Z
2021-07-31T13:59:13Z,42.805,6.029,13.3023,4.60068,2470.343,2021-7-31T16:00:30Z
2021-07-31T14:02:16Z,42.805,6.029,13.3034,4.60064,2470.32,2021-7-31T16:03:33Z
2021-07-31T14:05:19Z,42.805,6.029,13.3039,4.60067,2470.334,2021-7-31T16:06:37Z
2021-07-31T14:08:22Z,42.805,6.029,13.3002,4.60076,2470.32,2021-7-31T16:09:40Z
2021-07-31T14:11:26Z,42.805,6.029,13.3021,4.60072,2470.343,2021-7-31T16:12:43Z
2021-07-31T14:14:29Z,42.805,6.029,13.3023,4.60074,2470.366,2021-7-31T16:15:46Z
2021-07-31T14:17:32Z,42.805,6.029,13.3012,4.60074,2470.343,2021-7-31T16:18:49Z
2021-07-31T14:20:35Z,42.805,6.029,13.3029,4.60062,2470.334,2021-7-31T16:21:52Z
2021-07-31T14:23:38Z,42.805,6.029,13.3044,4.60075,2470.334,2021-7-31T16:24:55Z
2021-07-31T14:26:41Z,42.805,6.029,13.3024,4.60064,2470.306,2021-7-31T16:27:58Z
2021-07-31T14:29:44Z,42.805,6.029,13.3034,4.60046,2470.357,2021-7-31T16:31:02Z
2021-07-31T14:32:47Z,42.805,6.029,13.3021,4.60062,2470.334,2021-7-31T16:34:05Z
2021-07-31T14:35:51Z,42.805,6.029,13.3029,4.60064,2470.357,2021-7-31T16:37:08Z
2021-07-31T14:38:54Z,42.805,6.029,13.3027,4.60077,2470.32,2021-7-31T16:40:11Z
2021-07-31T14:41:57Z,42.805,6.029,13.3027,4.60077,2470.343,2021-7-31T16:43:14Z
2021-07-31T14:45:00Z,42.805,6.029,13.3027,4.60064,2470.343,2021-7-31T16:46:17Z
2021-07-31T14:48:03Z,42.805,6.029,13.3029,4.60042,2470.32,2021-7-31T16:49:20Z
2021-07-31T14:51:06Z,42.805,6.029,13.3011,4.60062,2470.38,2021-7-31T16:52:23Z
2021-07-31T14:54:09Z,42.805,6.029,13.3006,4.60072,2470.366,2021-7-31T16:55:27Z
2021-07-31T14:57:12Z,42.805,6.029,13.3005,4.60060,2470.343,2021-7-31T16:58:30Z
2021-07-31T15:00:16Z,42.805,6.029,13.3015,4.60064,2470.38,2021-7-31T17:01:33Z
2021-07-31T15:03:19Z,42.805,6.029,13.3022,4.60069,2470.334,2021-7-31T17:04:36Z
2021-07-31T15:06:22Z,42.805,6.029,13.3011,4.60059,2470.357,2021-7-31T17:07:39Z
2021-07-31T15:09:25Z,42.805,6.029,13.3021,4.60067,2470.32,2021-7-31T17:10:42Z
2021-07-31T15:12:28Z,42.805,6.029,13.3011,4.60072,2470.334,2021-7-31T17:13:45Z
2021-07-31T15:15:31Z,42.805,6.029,13.3028,4.60086,2470.297,2021-7-31T17:16:48Z